Regional Weather Roundup
Issued by NWS

Home | Current Version | Previous Version | Graphics & Text | Print | Product List | Glossary On
Versions: 1 2 3 4 5 6 7 8 9 10 11 12 13 14 15 16 17 18 19 20 21 22 23 24 25 26 27
000
ASUS45 KCYS 182110
RWRWY

WYOMING REGIONAL WEATHER ROUNDUP
NATIONAL WEATHER SERVICE CHEYENNE WY
200 PM MST SAT FEB 18 2017

NOTE:  "FAIR" INDICATES FEW OR NO CLOUDS BELOW 12,000 FEET
WITH NO SIGNIFICANT WEATHER AND/OR OBSTRUCTIONS TO VISIBILITY.

WYZ001-182200-
YELLOWSTONE NATIONAL PARK

CITY           SKY/WX    TMP DP  RH WIND       PRES   REMARKS
LK YELLOWSTONE   N/A     33  31  92 MISG      29.65F
W YELLOWSTONE  NOT AVBL

$$
WYZ002>013-054>058-071-098>099-182200-
NORTHERN WYOMING

CITY           SKY/WX    TMP DP  RH WIND       PRES   REMARKS
JACKSON        CLOUDY    36  34  93 SW12      29.64F WCI  27
CODY           FAIR      51  29  42 S7        29.57S
GREYBULL       FAIR      49  34  56 CALM      29.57F
WORLAND        FAIR      50  36  58 CALM      29.55F
SHERIDAN       FAIR      46  31  55 N8        29.55F
BUFFALO        FAIR      50  29  44 VRB5      29.57F
GILLETTE       FAIR      62  27  26 SW21G30   29.56F
HULETT         FAIR      59  30  33 SW10      29.59F
NEWCASTLE      FAIR      61  28  29 W15G24    29.63F

$$
WYZ014>020-022>026-101>103-182200-
CENTRAL WYOMING

CITY           SKY/WX    TMP DP  RH WIND       PRES   REMARKS
BIG PINEY      PTSUNNY   34  32  92 SE3       29.70F
PINEDALE       FAIR      37  32  81 E9        29.72F WCI  31
DUBOIS         CLOUDY    37  28  70 NW16G22   29.61S WCI  28
LANDER         FAIR      47  31  53 N5        29.59F
RIVERTON       FAIR      43  33  68 E5        29.61F
CASPER         FAIR      54  29  38 SW29G43   29.64F
DOUGLAS        FAIR      60  26  27 SW14G22   29.66F

$$
WYZ021-027>030-104>119-182200-
SOUTHERN WYOMING

CITY           SKY/WX    TMP DP  RH WIND       PRES   REMARKS
EVANSTON       CLOUDY    38  28  67 E6        29.67F WCI  33
KEMMERER         N/A     39  32  75 NE6       29.69F WCI  35
FORT BRIDGER   FAIR      38  31  76 NE5       29.70F WCI  35
ROCK SPRINGS   PTSUNNY   41  30  65 S23       29.69F
DIXON            N/A     47  29  49 SW9       29.77F
RAWLINS        CLOUDY    46  27  47 SW17G26   29.72F
SARATOGA       MOCLDY    50  27  40 W13G26    29.73F
LARAMIE        FAIR      55  22  27 SW10      29.70F
CHEYENNE       FAIR      58  20  22 S15G22    29.69F
TORRINGTON     FAIR      65  21  18 SE12      29.63F
PINE BLUFFS    FAIR      63  21  20 S21       29.68F

$$




USA.gov is the U.S. government's official web portal to all federal, state and local government web resources and services.